Home   Weather   Orange   Past weeks
Flag for Australia

Past Weather in Orange, New South Wales, Australia — Yesterday and Last 2 Weeks

Now
71 °F

Mild.


Feels Like: 77 °F
Forecast: 76 / 53 °F
Wind: 15 mph from Northeast

Location: Bathurst Airport Aws

Current Time: Feb 24, 2019 at 2:35:48 pm

Latest Report: Feb 24, 2019 at 1:00 pm


Visibility: N/A

Pressure: 30.26 "Hg (27.38 "Hg at 863m altitude)

Humidity: 47%

Dew Point: 50 °F

Location of OrangeLocation

Past Weather in Orange — Graph

°F

Orange Temperature Yesterday

Maximum temperature yesterday: 74 °F (at 5:00 pm)
Minimum temperature yesterday: 53 °F (at 7:00 am)
Average temperature yesterday: 64 °F

High & Low Weather Summary for the Past Weeks

 TemperatureHumidityPressure
High90 °F (Feb 18, 4:00 pm)100% (Feb 9, 1:00 pm)30.29 "Hg (Feb 9, 1:00 pm)
Low49 °F (Feb 11, 7:00 am)22% (Feb 12, 3:00 pm)29.47 "Hg (Feb 12, 4:00 pm)
Average67 °F59%29.87 "Hg
* Reported Feb 9 12:00 pm — Feb 24 12:00 pm, Orange. Weather by CustomWeather, © 2019

Note: Actual official high and low records may vary slightly from our data, if they occured in-between our weather recording intervals... More about our weather records

Advertising

Orange Weather History for the Previous 24 Hours

Scroll right to see more
 ConditionsComfort  
Time TempWeatherWind HumidityBarometerVisibility
12:00 pm
Sun, Feb 24
68 °FPassing clouds.15 mph46%30.28 "HgN/A
11:00 am64 °FMild.16 mph55%30.29 "HgN/A
10:00 am63 °FMild.14 mph56%30.28 "HgN/A
9:00 am60 °FPartly sunny.13 mph60%30.27 "HgN/A
8:00 am59 °FCool.14 mph61%30.24 "HgN/A
7:00 am57 °FCool.12 mph66%30.23 "HgN/A
6:00 am57 °FPassing clouds.12 mph64%30.20 "HgN/A
5:00 am58 °FCool.14 mph65%30.18 "HgN/A
4:00 am59 °FCool.14 mph67%30.17 "HgN/A
3:00 am59 °FOvercast.14 mph72%30.18 "HgN/A
2:00 am60 °FCool.12 mph72%30.19 "HgN/A
1:00 am60 °FCool.9 mph69%30.20 "HgN/A
12:00 am61 °FOvercast.7 mph62%30.21 "HgN/A
11:00 pm
Sat, Feb 23
60 °FCool.7 mph61%30.21 "HgN/A
10:00 pm63 °FMild.14 mph58%30.20 "HgN/A
9:00 pm63 °FMild.9 mph61%30.18 "HgN/A
8:00 pm65 °FMild.13 mph57%30.16 "HgN/A
7:00 pm68 °FMild.15 mph53%30.13 "HgN/A
6:00 pm71 °FMild.15 mph45%30.11 "HgN/A
5:00 pm74 °FMild.15 mph40%30.10 "HgN/A
4:00 pm73 °FMild.16 mph46%30.10 "HgN/A
3:00 pm72 °FOvercast.13 mph47%30.11 "HgN/A
2:00 pm73 °FMild.12 mph51%30.12 "HgN/A
Weather by CustomWeather, © 2019

See weather overview